Stündliche Wetter Kyzyldala

Heute, 10 Mai, Montag

Zeit Temperatur Niederschläge Wind Luftdruck Luftfeuchtigkeit
00:00 +16°C° 0 mm 2 m/S 718 mmHg 79%
01:00 +16°C° 0 mm 2 m/S 718 mmHg 76%
02:00 +16°C° 0 mm 2 m/S 718 mmHg 73%
03:00 +16°C° 0 mm 2 m/S 717 mmHg 74%
04:00 +15°C° 0 mm 2 m/S 717 mmHg 76%
05:00 +14°C° 0 mm 3 m/S 717 mmHg 76%
06:00 +16°C° 0 mm 2 m/S 717 mmHg 72%
07:00 +18°C° 0 mm 2 m/S 718 mmHg 69%
08:00 +19°C° 0 mm 2 m/S 718 mmHg 66%
09:00 +20°C° 0 mm 3 m/S 718 mmHg 62%
10:00 +21°C° 0 mm 3 m/S 718 mmHg 59%
11:00 +23°C° 0 mm 4 m/S 718 mmHg 55%
12:00 +23°C° 0 mm 4 m/S 718 mmHg 54%
13:00 +24°C° 0 mm 3 m/S 718 mmHg 53%
14:00 +25°C° 0 mm 3 m/S 717 mmHg 52%
15:00 +24°C° 0.1 mm 3 m/S 717 mmHg 54%
16:00 +24°C° 0.1 mm 2 m/S 717 mmHg 57%
17:00 +24°C° 0.1 mm 2 m/S 717 mmHg 60%
18:00 +23°C° 0.1 mm 2 m/S 717 mmHg 61%
19:00 +20°C° 0.1 mm 2 m/S 717 mmHg 63%
20:00 +19°C° 0.1 mm 2 m/S 717 mmHg 65%
21:00 +20°C° 0 mm 1 m/S 717 mmHg 66%
22:00 +19°C° 0 mm 1 m/S 717 mmHg 67%
23:00 +19°C° 0 mm 1 m/S 717 mmHg 68%

Morgen, 11 Mai, Dienstag

Zeit Temperatur Niederschläge Wind Luftdruck Luftfeuchtigkeit
00:00 +18°C° 0 mm 1 m/S 717 mmHg 70%
01:00 +16°C° 0 mm 1 m/S 717 mmHg 73%
02:00 +16°C° 0 mm 1 m/S 717 mmHg 75%
03:00 +15°C° 0 mm 1 m/S 717 mmHg 75%
04:00 +15°C° 0 mm 1 m/S 717 mmHg 75%
05:00 +14°C° 0 mm 1 m/S 718 mmHg 75%
06:00 +16°C° 0 mm 1 m/S 718 mmHg 67%
07:00 +19°C° 0 mm 1 m/S 719 mmHg 60%
08:00 +21°C° 0 mm 1 m/S 719 mmHg 52%
09:00 +21°C° 0 mm 2 m/S 720 mmHg 46%
10:00 +24°C° 0 mm 3 m/S 720 mmHg 39%
11:00 +25°C° 0 mm 4 m/S 720 mmHg 33%
12:00 +25°C° 0 mm 3 m/S 720 mmHg 32%
13:00 +26°C° 0 mm 3 m/S 720 mmHg 31%
14:00 +26°C° 0 mm 3 m/S 721 mmHg 30%
15:00 +26°C° 0 mm 2 m/S 720 mmHg 31%
16:00 +26°C° 0 mm 2 m/S 720 mmHg 33%
17:00 +26°C° 0 mm 2 m/S 720 mmHg 35%
18:00 +24°C° 0 mm 2 m/S 720 mmHg 40%
19:00 +20°C° 0 mm 2 m/S 720 mmHg 46%
20:00 +18°C° 0 mm 2 m/S 720 mmHg 51%
21:00 +17°C° 0 mm 2 m/S 720 mmHg 52%
22:00 +18°C° 0 mm 1 m/S 719 mmHg 53%
23:00 +16°C° 0 mm 1 m/S 719 mmHg 53%

übermorgen, 12 Mai, Mittwoch

Zeit Temperatur Niederschläge Wind Luftdruck Luftfeuchtigkeit
00:00 +16°C° 0 mm 1 m/S 719 mmHg 53%
01:00 +15°C° 0 mm 1 m/S 719 mmHg 53%
02:00 +15°C° 0 mm 1 m/S 718 mmHg 53%
03:00 +15°C° 0 mm 1 m/S 718 mmHg 54%
04:00 +14°C° 0 mm 1 m/S 718 mmHg 54%
05:00 +14°C° 0 mm 1 m/S 718 mmHg 54%
06:00 +16°C° 0 mm 1 m/S 719 mmHg 52%
07:00 +18°C° 0 mm 2 m/S 719 mmHg 51%
08:00 +20°C° 0 mm 2 m/S 719 mmHg 49%
09:00 +21°C° 0 mm 3 m/S 719 mmHg 47%
10:00 +24°C° 0 mm 3 m/S 719 mmHg 44%
11:00 +26°C° 0 mm 4 m/S 719 mmHg 41%
12:00 +26°C° 0 mm 5 m/S 719 mmHg 40%
13:00 +27°C° 0 mm 6 m/S 719 mmHg 39%
14:00 +27°C° 0 mm 6 m/S 719 mmHg 38%
15:00 +27°C° 0 mm 7 m/S 719 mmHg 41%
16:00 +26°C° 0 mm 7 m/S 719 mmHg 44%
17:00 +24°C° 0 mm 8 m/S 719 mmHg 46%
18:00 +23°C° 0 mm 8 m/S 718 mmHg 45%
19:00 +22°C° 0 mm 8 m/S 718 mmHg 44%
20:00 +20°C° 0 mm 8 m/S 718 mmHg 43%
21:00 +18°C° 0 mm 8 m/S 718 mmHg 44%
22:00 +17°C° 0 mm 8 m/S 718 mmHg 45%
23:00 +17°C° 0 mm 7 m/S 717 mmHg 46%

13 Mai, Donnerstag

Zeit Temperatur Niederschläge Wind Luftdruck Luftfeuchtigkeit
00:00 +16°C° 0 mm 6 m/S 717 mmHg 48%
01:00 +15°C° 0 mm 5 m/S 717 mmHg 50%
02:00 +14°C° 0 mm 4 m/S 717 mmHg 51%
03:00 +14°C° 0 mm 4 m/S 717 mmHg 52%
04:00 +13°C° 0 mm 3 m/S 717 mmHg 53%
05:00 +13°C° 0 mm 3 m/S 717 mmHg 54%
06:00 +16°C° 0 mm 2 m/S 717 mmHg 54%
07:00 +18°C° 0 mm 2 m/S 718 mmHg 53%
08:00 +20°C° 0 mm 2 m/S 718 mmHg 52%
09:00 +21°C° 0 mm 3 m/S 718 mmHg 49%
10:00 +22°C° 0 mm 3 m/S 718 mmHg 47%
11:00 +25°C° 0 mm 4 m/S 719 mmHg 44%
12:00 +25°C° 0 mm 4 m/S 718 mmHg 41%
13:00 +26°C° 0 mm 5 m/S 718 mmHg 39%
14:00 +26°C° 0 mm 5 m/S 718 mmHg 37%
15:00 +26°C° 0 mm 6 m/S 718 mmHg 38%
16:00 +24°C° 0 mm 6 m/S 718 mmHg 38%
17:00 +24°C° 0 mm 7 m/S 718 mmHg 39%
18:00 +22°C° 0 mm 7 m/S 718 mmHg 40%
19:00 +20°C° 0 mm 6 m/S 718 mmHg 40%
20:00 +17°C° 0 mm 6 m/S 718 mmHg 41%
21:00 +17°C° 0 mm 6 m/S 717 mmHg 41%
22:00 +16°C° 0 mm 6 m/S 717 mmHg 41%
23:00 +16°C° 0 mm 6 m/S 717 mmHg 41%

14 Mai, Freitag

Zeit Temperatur Niederschläge Wind Luftdruck Luftfeuchtigkeit
00:00 +16°C° 0 mm 6 m/S 717 mmHg 44%
01:00 +15°C° 0 mm 5 m/S 716 mmHg 47%
02:00 +15°C° 0 mm 5 m/S 716 mmHg 49%
03:00 +15°C° 0 mm 5 m/S 716 mmHg 50%
04:00 +14°C° 0 mm 4 m/S 716 mmHg 52%
05:00 +14°C° 0 mm 4 m/S 716 mmHg 53%
06:00 +17°C° 0 mm 4 m/S 717 mmHg 52%
07:00 +18°C° 0 mm 4 m/S 717 mmHg 51%
08:00 +20°C° 0 mm 4 m/S 717 mmHg 50%
09:00 +22°C° 0 mm 4 m/S 718 mmHg 47%
10:00 +23°C° 0 mm 5 m/S 718 mmHg 43%
11:00 +25°C° 0 mm 5 m/S 718 mmHg 40%
12:00 +26°C° 0 mm 6 m/S 718 mmHg 39%
13:00 +26°C° 0 mm 7 m/S 718 mmHg 37%
14:00 +27°C° 0 mm 7 m/S 718 mmHg 36%
15:00 +26°C° 0 mm 7 m/S 717 mmHg 39%
16:00 +24°C° 0 mm 8 m/S 717 mmHg 42%
17:00 +23°C° 0 mm 8 m/S 717 mmHg 44%
18:00 +21°C° 0 mm 8 m/S 717 mmHg 44%
19:00 +20°C° 0 mm 8 m/S 716 mmHg 44%
20:00 +17°C° 0 mm 8 m/S 716 mmHg 44%
21:00 +17°C° 0 mm 7 m/S 716 mmHg 46%
22:00 +16°C° 0 mm 7 m/S 716 mmHg 48%
23:00 +15°C° 0 mm 6 m/S 715 mmHg 50%

15 Mai, Samstag

Zeit Temperatur Niederschläge Wind Luftdruck Luftfeuchtigkeit
00:00 +15°C° 0 mm 5 m/S 715 mmHg 51%
01:00 +15°C° 0 mm 5 m/S 715 mmHg 52%
02:00 +15°C° 0 mm 5 m/S 715 mmHg 52%
03:00 +14°C° 0 mm 4 m/S 715 mmHg 52%
04:00 +14°C° 0 mm 4 m/S 715 mmHg 52%
05:00 +14°C° 0 mm 3 m/S 715 mmHg 52%
06:00 +16°C° 0 mm 3 m/S 715 mmHg 51%
07:00 +18°C° 0 mm 3 m/S 716 mmHg 51%
08:00 +19°C° 0 mm 2 m/S 716 mmHg 50%
09:00 +21°C° 0 mm 2 m/S 716 mmHg 47%
10:00 +23°C° 0 mm 2 m/S 717 mmHg 45%
11:00 +25°C° 0 mm 2 m/S 717 mmHg 42%
12:00 +26°C° 0 mm 3 m/S 717 mmHg 40%
13:00 +26°C° 0 mm 4 m/S 716 mmHg 38%
14:00 +27°C° 0 mm 4 m/S 716 mmHg 36%
15:00 +27°C° 0 mm 5 m/S 716 mmHg 38%
16:00 +27°C° 0 mm 5 m/S 716 mmHg 40%
17:00 +26°C° 0 mm 5 m/S 716 mmHg 42%
18:00 +23°C° 0 mm 5 m/S 715 mmHg 45%
19:00 +21°C° 0 mm 5 m/S 715 mmHg 48%
20:00 +19°C° 0 mm 5 m/S 715 mmHg 51%
21:00 +19°C° 0 mm 4 m/S 715 mmHg 51%
22:00 +18°C° 0 mm 4 m/S 715 mmHg 52%
23:00 +17°C° 0 mm 4 m/S 715 mmHg 53%
Mehr zeigen

Wir brauchen deine Erlaubnis

Meteoprog und unser Service Anbieter werden persönliche Daten aufbewahren, so wie Cookies, Geräte Bezeichnung oder ähnliche Technologien von deinem Gerät und Prozess, so wie Persönliche Daten Inhalte und Werbungen, genauso wie social Media und den Verkehr zu analysieren.

  • Aufbewahrung und/oder Zugang zu deiner Geräte Informationen.

    Cookies, Geräte Bezeichnung oder andere Informationen, können aufbewahrt oder Zugang zu deinem Gerät erhalten, für den Grund, der oben angegeben wird.

  • Personalisierte Werbung und Inhalte, Messungen, Einblick in das Publikum und Produkt Entwicklung.

    Werbungen und Inhalte können personalisiert werden, basierend auf ein Profil. Mehr Daten können besser personalisierte Werbungen und Inhalte hinzufügen. Werbung und Inhalte können gezeigt und gemessen werden. Einblicke über das Publikum, welche die Werbung gesehen haben und den Inhalt, können abgeleitet werden. So wie Daten können genutzt werden, um es zu verbessern oder die Benutzer Erfahrung zu verbessern das System und die Software.

Wenn du “Ich stimme zu” klickst, erlaubst du uns, die Cookies zu benutzen die Geräte Bezeichnung, den Web oder ähnliche Technologien zu benutzen. Deine Settings, können in deinem Gerät bei deinem Browser geändert werden.

Für den bestimmten Zweck, berechtigten Interessen beruhen darauf, mehr als auf den Inhalt. Du kannst mehr darüber in unseren Privaten und Cookie Politik lesen.